"Pseudo-MPEC" for C04H051

Created 2019 Mar 28 13:18:08 UT using Find_Orb

Click here for an explanation of pseudo-MPECs

 
 Astrometry: 
     C04H051  C2019 03 04.30224 11 29 07.11 +25 36 20.4    ~39Bm 18.7 GVNEOCP703
     C04H051  C2019 03 04.30756 11 28 40.42 +25 36 47.5    ~39Bm 18.6 GVNEOCP703
     C04H051  C2019 03 04.31292 11 28 13.19 +25 37 15.1    ~39Bm 18.9 GVNEOCP703
     C04H051  C2019 03 04.46263 11 15 36.49 +25 47 38.1    ~39Bm 18.4 GVNEOCPI52
     C04H051  C2019 03 04.46287 11 15 35.25 +25 47 38.5    ~39Bm 18.2 GVNEOCPI52
     C04H051  C2019 03 04.46311 11 15 34.01 +25 47 39.6    ~39Bm 18.3 GVNEOCPI52
     C04H051  C2019 03 04.46335 11 15 32.76 +25 47 40.1    ~39Bm 18.0 GVNEOCPI52
     C04H051  C2019 03 06.31918 08 45 43.11 +22 38 11.6    ~39Bm 19.6 GVNEOCPG96
     C04H051  C2019 03 06.31941 08 45 42.16 +22 38 08.4    ~39Bm 19.6 GVNEOCPG96
     C04H051  C2019 03 06.31964 08 45 41.25 +22 38 05.5    ~39Bm 19.5 GVNEOCPG96
     C04H051  C2019 03 06.31988 08 45 40.32 +22 38 02.3    ~39Bm 19.5 GVNEOCPG96
     C04H051 KC2019 03 06VjNS]Astrometry]UtP'7T'Wrr4?GhgeO\:_xTh=pE-DRD[.r15/J04
     C04H051 KC2019 03 06W6wEVL[peZJ.Q@S8_\mTe]=+y^Dhm!%j5p\+5pUCGPP_H6u))B@FJ04
     C04H051 KC2019 03 06MAAMVkca'3qJZ!!sI7HtQH;Ru5\Gw4Ns/UO!?7(RbRgc-:fx=lsHJ04
     C04H051 |C2019 03 07kT%?M4tWimHK0XAMe[9dx`7!.%!R\8Cjq,kOO^w!^-Y%ZD;Mbmgy807
     C04H051 |C2019 03 07L+4h#t3RIr)J06)jJ(_wj,ejU;H%i=AoU8YOKeSwn#.*aR.ik+3w807
     C04H051 |C2019 03 07/wS$yb2lBwE?k'OcY],$B@VGQ.2W@u.MTa5Js'lp2;)9jFM'-QJM807
     C04H051  C2019 03 07.11584 07 59 22.56 +19 41 30.4    ~39Bm 19.3 GVNEOCPI52
     C04H051  C2019 03 07.11946 07 59 11.59 +19 40 42.7    ~39Bm 19.2 GVNEOCPI52
     C04H051  C2019 03 07.12024 07 59 09.21 +19 40 32.3    ~39Bm 19.3 GVNEOCPI52
     C04H051 KC2019 03 08.02229107 20 46.00 +16 33 22.1    ~39Bm       VNEOCPJ95
     C04H051 KC2019 03 08.03506907 20 18.65 +16 30 56.8    ~39Bm 20.3 GVNEOCPJ95
     C04H051  C2019 03 08j3x=g`,kY4^*npEwcjD6KQBOX)F6S^wK%:l?!]xiA(]kN[/rYyCdT12
     C04H051  C2019 03 0821m0\L$NkYfCHaL,STgbaId]v:p([MlyKFD*fBSNn_[w\Z8+xu\8T12
     C04H051  C2019 03 08@+Ek,DPrf)4B[6HXr(qWZF9rlE6@3\:\,$\Ql?Qa3pcEBEy%=mw/T12
     C04H051  C2019 03 08D,)f?SX^+8Er..=PSZ)2Qv/`iwi:!28a;M[n+tSCsK+(i[5#dHT;T12
     C04H051  C2019 03 08cI7J?,w!\Oredacted;.YHYd*y@YB3Y-[=p;YB,^a85mrk!+:4JDT12
     C04H051  C2019 03 08^TH?q8gwZs5AfK^YwOZ\in,h_0,V+Gn`o31gKx+LT'8%eqn+^8SET12
     C04H051  C2019 03 083=\PfIVdh;6vB(!ayW0^oH8n(Q#nT\qrr!^v1IM9:oB;1uLAZuirT12
     C04H051  C2019 03 081/(*(]h$okvB_6k'+VWw6R@.Bkej?v!N$_Vb(41M0S2xm+UJR`osT12
     C04H051  C2019 03 081k2iPB+21`uIrvHf[#6x/PG\yl!h(8Ss$B#GN62DP-n]ph?MX=\cT12
     C04H051  C2019 03 088f)ekCl.Y$RceeIp.hC@_Z)#Slg'vZmZE8`h*H!bd(!*QK8sI22)T12
     C04H051  C2019 03 08^60r\I2$-ZZJ[DR6(];tVd-BGI1]1gI$1v:4.ruiRyJQQ:YhUTDtT12
     C04H051  C2019 03 08O?YRwjN7X]/.L-Pm_DL'SZLMuFI_x(h=aA:,I+,nL20Z#s`*:dA`T12
     C04H051  C2019 03 08B4c6@2u^si1+TEH1b;ryD@hsQ;aMO$cIk^-d'rI[=Km54bbjBa4bT12
     C04H051  C2019 03 08y!VJGW1[*Zq!`ktSdInSe50!a\y:]UV-V0gkH!JaZo[;HdpS)+=+T12
     C04H051  C2019 03 08iIL-jq0k44-n)B/QBM!O1,l,clickkTlM!bp$4$n+h9?Fh+CQ6e%T12
     C04H051  C2019 03 08)S:uZo]QsK/A0wZ*y[r^X#tC\e8LbF2kS@3uWdn\Mil$$P#9H;q5T12
     C04H051  C2019 03 08S!a`([s#88LNe;ujsKG2Nc)TRxp-++I^a1DilqF_/r3Ohbsa4@tbT12
     C04H051  C2019 03 08C`LFD3WB$:Hc#uPR=9K$'FRi)0_se%pLQ=JdNG@R;CoK[mP9tvl=T12
     C04H051  C2019 03 08Xm3urQ#?rVZ;%R3%WHr.aF^Scr/?QU^Dh3?j5ko`s_YA2A]X6BR;T12
     C04H051  C2019 03 08]F2N[#N+d.-7n@3bp^B`Zt`P-7FWA_;gKCHNKSlZ:^(5q.wgFsM[T12
     C04H051  C2019 03 082FJMguJ6$uCJ/8.7M%y$lwt[jbFEAWWB\^/WbE57C`G[n8.NlftlT12
     C04H051  C2019 03 08,R*=t@U)x=)gUMVavHIJ:5x,RG3_W`lcE/]eeA=\$+k^2!EbJHfdT12
     C04H051  C2019 03 08Niyt-x^D=#e5_Ct+',,IV(5u?.287VkeciI-aMv@JJK,0WfYhoo=T12
     C04H051  C2019 03 08B8G-Uj1+7C[Wn+(T:@u(ijEX:/vq+hr8C=I9H;]^r+iU_+oY[QIKT12
     C04H051  C2019 03 08=O)6A-E@/`Wm2]g!B64#A7)qrHcpd'EGqAN$fHgLY[^urP:p8V!cT12
     C04H051  C2019 03 08x5Y?=]_?J1x_JMWP#ruj8QE4n)3\keqJ_haD-e0+KZX\d5here.0T12
     C04H051  C2019 03 08lp=(;\SeAA@Nk*YpdkS(Z;FDnW:kxj7na?cDr(?9._gTi$-E1iYMT12
     C04H051  C2019 03 08=$H$C2H:h/#'wWKQ[2Qm0@lh;Ga'G$+p\)(+EvM.yT_VY7llh_nRT12
     C04H051  C2019 03 08!c:aYvj;[ik.wE=]!vNGB`jn?^imKoc?0vkQC\`@'WW]-+^*!EtJT12
     C04H051  C2019 03 08'B8kr.Ec`hyb[W@%H[!C+fVxxi=%e0J]oF$]y$yZ5?R.yUVZVS?vT12
     C04H051 _C2019 03 09.25163806 45 28.697+13 11 30.24   ~3AMX 21.4 GVNEOCP568
     C04H051 _C2019 03 09.25343906 45 26.184+13 11 15.08   ~3AMX 21.5 GVNEOCP568
     C04H051 _C2019 03 09.25470106 45 24.425+13 11 04.46   ~3AMX 21.6 GVNEOCP568
     C04H051  C2019 03 09=E#cLh/F/46(gD[vTo,b4)KRW$AeAfBvOoPqXPrA?.$,,_(`/4HCT12
     C04H051  C2019 03 09nM66#@_T7^c9#K=cWWkrftcQHmTcN\e_@$m1B,O6cSM2d^*xXnP'T12
     C04H051  C2019 03 09X$1R(X%dm;NGH!33sq=rPeH12F_qr=O)pXah]5xT\F/J3(A+Kp\wT12
     C04H051  C2019 03 09j8#HSk_Y7g=7PgKY.V3ZjpWYSmsbGcTJebp$uvocm-mZ2LCB`#HPT12
     C04H051  C2019 03 09wtRE?:oD5kmR_Fs2L.fsWG7Y(0Y_p1*5%S3oD'G][G1HtMV`G3WHT12
     C04H051 IC2019 03 09tOXlTeYI/`KGBLXj_a`4r.8bl'IVUK+gq9RQc7h=for3:OW;4XVuL01
     C04H051 IC2019 03 09@9,u?k=6*ogGeYi(F*W$yl6UA\7Xt'.:unjn_-*DVLEB_5J+s\crL01
     C04H051 KC2019 03 09'VyjJt^:hx!MvXSuT80$C):aUB`\EvT',TqV(/KKaLx]^+Y8CCq@L01
     C04H051 IC2019 03 09sSMZJ[+d;+5Xg:prMc;p45Qy=ha_a;#hO'J[-hv9#RKjlub?8WjLL01
     C04H051 IC2019 03 09J(YmX`qmH_i;bAf,h;naT%QZqM`5\(7a0qTBWK5%0XtLT:XBV)d+L01
     C04H051 KC2019 03 10xg)9QTmNer=E\v?.*Z@L6F/+xxb`]-9$6RVD*0LGU/wt='T8SD^=291
     C04H051 KC2019 03 104mI9^Uo(/S8\mkxBbYvgu9*s]yJC/_62RNhGWwTo3.=$,_A@5A-0291
     C04H051  C2019 03 12HTm_fE3TFD,:?/1xop?5+:BO3$TIXHbDmOS:N9nh2#S0sIOb.D+JT12
     C04H051  C2019 03 12P.'l-Nv`BJS78e:kvgn%PI5'vS+$*dT8E!Etw_pG8-9$^TCRYs.]T12
     C04H051  C2019 03 12_F8_G83DQ)kjk^HmBjN[\rL,vGCv`iiy6[242Ya=$._x3J4CPtsQT12
     C04H051  C2019 03 12Rt#f`sF=ZcAh#HAj]:,ZD'Tuy$g`=Xlk[YQ/Yniv62y8SD068K]wT12
     C04H051  C2019 03 12FW)kmBu7EL'W%sdI)UbEEC_WsexplanationhW0hhnY5d!7`l7fMT12

Station data:
(291) LPL/Spacewatch II  (N31.961669 W111.599905)  US/Arizona.  Observers J.
   V. Scotti, R. S. McMillan. 1.8-m f/2.7 reflector + CCD.
(568) Mauna Kea  (N19.826116 W155.472200)  US/Hawaii.
(703) Catalina Sky Survey  (N32.417006 W110.732640)  US/Arizona.  Observers
   B. M. Africano, E. J. Christensen, G. A. Farneth, D. C. Fuls, A. R. Gibbs,
   A. D. Grauer, H. Groeller, J. A. Johnson, R. A. Kowalski, S. M. Larson, G.
   J. Leonard, R. L. Seaman, F. C. Shelly. 0.68 m Schmidt + 10K CCD.
(807) Cerro Tololo Observatory, La Serena  (S30.169136 W70.805900)  Chile.
   1.5-m Ritchey-Chrétien.
(G96) Mt. Lemmon Survey  (N32.442754 W110.788720)  US/Arizona.  Observers B.
   M. Africano, E. J. Christensen, G. A. Farneth, D. C. Fuls, A. R. Gibbs, A.
   D. Grauer, H. Groeller, J. A. Johnson, R. A. Kowalski, S. M. Larson, G. J.
   Leonard, R. L. Seaman, F. C. Shelly. 1.5-m reflector + 10K CCD.
(I52) Steward Observatory, Mt. Lemmon Station  (N32.442547 W110.788920)
   US/Arizona.  Observers B. M. Africano, E. J. Christensen, G. A. Farneth,
   D. C. Fuls, A. R. Gibbs, A. D. Grauer, H. Groeller, J. A. Johnson, R. A.
   Kowalski, S. M. Larson, G. J. Leonard, R. L. Seaman, F. C. Shelly. 1.0-m
   reflector + CCD.
(J04) ESA Optical Ground Station, Tenerife  (N28.300924 W16.511830)  Canary
   Islands (Spain).  Observer D. Abreu. Measurers M. Micheli, D. Koschny, E.
   Schwab, M. Busch, A. Knöfel. 1.0-m f/4.4 reflector + CCD.
(J95) Great Shefford  (N51.474969 W1.447003)  UK.  Observer P. Birtwhistle.
   0.40-m f/6.0 Schmidt-Cassegrain + CCD.
(L01) Višnjan Observatory, Tičan  (N45.290900 E13.749300)  Croatia.
   Observers K. Korlević, E. Pettarin. Measurer E. Pettarin. 1.0-m f/2.9
   reflector + CCD.
(T12) Mauna Kea-UH/Tholen NEO Follow-Up (2.24-m)  (N19.822991 W155.469434)
   US/Hawaii.  Observers D. Fohring, D. Hung, Y. Ramanjooloo, Z. Claytor, D.
   J. Tholen. 2.24-m University of Hawaii reflector.

Orbital elements:  C04H051
   Perihelion 2019 Mar 17.469346 +/- 0.14 TT = 11:15:51 (JD 2458559.969346)
Epoch 2019 Mar 12.0 TT = JDT 2458554.5   Earth MOID: 0.0994   AutoNEOCP
q   1.07747239 +/- 0.0004           (J2000 ecliptic)
H   22.6  G 0.15                    Peri.  193.00475 +/- 0.13
                                    Node   340.62181 +/- 0.009
e   1.0095193 +/- 0.0127            Incl.  139.85469 +/- 0.057
From 72 observations 2019 Mar. 4-12; mean residual 0".48
Residuals in arcseconds: 
190304 703  3.0+  .40-    190308 T12  .09-  .05+    190308 T12  .14-  .04+    
190304 703  1.7+  .46-    190308 T12  .04-  .04+    190308 T12  .02-  .13+    
190304 703  3.8-  .10+    190308 T12  .15-  .05-    190308 T12  .06-  .01+    
190304 I52  .11+  .03-    190308 T12  .12-  .01+    190308 T12  .29-  .16+    
190304 I52  .11-  .42-    190308 T12  .03-  .03+    190309 568  .02+  .02+    
190304 I52  .34-  .11-    190308 T12  .01-  .03+    190309 568  .03+  .02+    
190304 I52  .70-  .40-    190308 T12  .06+  .00     190309 568  .05+  .02+    
190306 G96  .24-  .01+    190308 T12  .05-  .00     190309 T12  .06-  .11+    
190306 G96  .60-  .22-    190308 T12  .10+  .03+    190309 T12  .03+  .04+    
190306 G96  .40-  .14-    190308 T12  .14+  .16-    190309 T12  .01-  .05+    
190306 G96  .08+  .24-    190308 T12  .04-  .09+    190309 T12  .04-  .01+    
190306 J04  .15-  .01-    190308 T12  .10-  .02+    190309 T12  .04-  .05+    
190306 J04  .07+  .23+    190308 T12  .04-  .05+    190309 L01  .21+  .27-    
190306 J04  .13-  .08+    190308 T12  .17-  .02+    190309 L01  .08+  .79-    
190307 807  .16+  .45-    190308 T12  .13-  .00     190309 L01  .57-  .09+    
190307 807  .29-  .34+    190308 T12  .01+  .16-    190309 L01  .36+  .37+    
190307 807  .40-  .26+    190308 T12  .04-  .04+    190309 L01  .10+  .35+    
190307 I52  .19-  .06+    190308 T12  .23-  .05+    190310 291  .23-  .12+    
190307 I52  .06+  .18+    190308 T12  .14-  .03-    190310 291  .72-  .50+    
190307 I52  .14-  .09+    190308 T12  .15-  .02-    190312 T12  .05-  .01-    
